Home   Weather   Jujuy   Past weeks

Flag for Argentina Past Weather in Jujuy, Jujuy, Argentina — Yesterday and Last 2 Weeks

Now
77 °F

Partly sunny.


Feels Like: 79 °F
Forecast: 63 / 69 °F
Wind: 7 mph from South

Location: Jujuy Aerodrome

Current Time: Jan 23, 2017 at 2:17:49 pm

Latest Report: Jan 23, 2017 at 1:00 pm


Visibility: N/A

Pressure: 30.04 "Hg (21.56 "Hg at 2895m altitude)

Humidity: 65%

Dew Point: 64 °F

Location of JujuyLocation

Past Weather in Jujuy — Graph

°F

Jujuy Temperature Yesterday

Maximum temperature yesterday: 95 °F (at 3:00 pm)
Minimum temperature yesterday: 66 °F (at 7:00 am)
Average temperature yesterday: 80 °F

High & Low Weather Summary for the Past Weeks

 TemperatureHumidityPressure
High97 °F (Jan 9, 3:00 pm)100% (Jan 10, 3:00 am)30.12 "Hg (Jan 10, 3:00 am)
Low66 °F (Jan 10, 11:00 am)30% (Jan 22, 3:00 pm)29.56 "Hg (Jan 9, 5:00 pm)
Average79 °F70%29.91 "Hg
* Reported Jan 8 1:00 pm — Jan 23 1:00 pm, Jujuy, Weather by CustomWeather, © 2017

Note: Actual official high and low records may vary slightly from our data, if they occured in-between our weather recording intervals... More about our weather records

Advertising

Jujuy Weather History for the Previous 24 Hours

Scroll right to see more
 ConditionsComfort  
Time TempWeatherWind HumidityBarometerVisibility
1:00 pm
Mon, Jan 23
77 °FPartly sunny.7 mph65%30.04 "HgN/A
12:00 pm72 °FOvercast.5 mph83%30.04 "HgN/A
11:00 am72 °FPartly sunny.6 mph88%30.04 "HgN/A
10:00 am68 °FPartly sunny.No wind94%30.04 "HgN/A
9:00 am66 °FRain. Overcast.No wind100%30.04 "Hg5 mi
8:00 am66 °FRain. Overcast.6 mph100%30.01 "Hg4 mi
7:00 am66 °FLight rain. More clouds than sun.8 mph94%30.01 "Hg2 mi
6:00 am68 °FMostly cloudy.9 mph88%29.98 "Hg5 mi
5:00 am68 °FMostly cloudy.12 mph88%29.98 "Hg5 mi
4:00 am68 °FMostly cloudy.5 mph88%29.98 "Hg5 mi
3:00 am68 °FMostly cloudy.8 mph88%29.98 "HgN/A
2:00 am68 °FMostly cloudy.9 mph88%29.98 "HgN/A
1:00 am73 °FMostly cloudy.3 mph69%30.01 "HgN/A
12:00 am73 °FPartly cloudy.5 mph69%30.01 "HgN/A
11:00 pm
Sun, Jan 22
72 °FPartly cloudy.12 mph78%29.98 "HgN/A
10:00 pm72 °FPassing clouds.8 mph73%29.95 "HgN/A
9:00 pm81 °FPartly cloudy.9 mph51%29.92 "HgN/A
8:00 pm81 °FBroken clouds.3 mph48%29.86 "HgN/A
7:00 pm84 °FPartly sunny.9 mph43%29.83 "HgN/A
6:00 pm91 °FPartly sunny.5 mph36%29.83 "HgN/A
5:00 pm93 °FPassing clouds.6 mph34%29.83 "HgN/A
4:00 pm93 °FPassing clouds.6 mph32%29.86 "HgN/A
3:00 pm95 °FPassing clouds.8 mph30%29.89 "HgN/A
2:00 pm93 °FPassing clouds.3 mph36%29.92 "HgN/A
Weather by CustomWeather, © 2017

See weather overviewHow to use our weather pages